This demonstration page uses our WeatherBlox Daily Observations layout. Learn more.

Hourly Observations for April 5, 2018

Temp ( °F °C ) Dew Point ( °F °C ) Humidity (%) Winds ( mph kmh ) Pressure ( in mb ) Visibility ( mi km ) Precip ( " mm )
12:15 am 00:15 Clear 35 1.5 26 -3.4 70 70 E 5 7 30.03 1017 10 16.0934 0 0
12:35 am 00:35 Partly Cloudy 32 -0.1 26 -3.2 80 80 NE 8 13 30.03 1017 10 16.0934 0 0
12:55 am 00:55 Mostly Cloudy 33 0.3 27 -3 79 79 E 8 13 30.06 1018 10 16.0934 0 0
1:15 am 01:15 Partly Cloudy 32 0.2 26 -3.2 78 78 E 5 7 30.06 1018 10 16.0934 0 0
1:35 am 01:35 Partly Cloudy 33 0.5 26 -3.2 77 77 E 8 13 30.06 1018 10 16.0934 0 0
1:55 am 01:55 Clear 32 0 26 -3.4 78 78 ESE 9 15 30.03 1017 10 16.0934 0 0
2:15 am 02:15 Clear 31 -0.5 26 -3.5 80 80 ESE 5 7 30.03 1017 10 16.0934 0 0
2:35 am 02:35 Clear 31 -0.6 26 -3.3 82 82 NNE 9 15 30.06 1018 10 16.0934 0 0
2:55 am 02:55 Clear 31 -0.8 26 -3.5 82 82 NE 7 11 30.09 1019 10 16.0934 0 0
3:15 am 03:15 Clear 30 -1 26 -3.5 83 83 NE 8 13 30.06 1018 10 16.0934 0 0
3:35 am 03:35 Clear 29 -1.8 25 -3.9 86 86 NE 8 13 30.06 1018 10 16.0934 0 0
3:55 am 03:55 Clear 28 -2.4 25 -4.1 88 88 NE 5 7 30.06 1018 10 16.0934 0 0
4:15 am 04:15 Clear 28 -2.5 24 -4.3 88 88 ENE 3 6 30.06 1018 10 16.0934 0 0
4:35 am 04:35 Clear 27 -2.6 24 -4.2 89 89 NNE 6 9 30.06 1018 10 16.0934 0 0
4:55 am 04:55 Clear 27 -2.6 24 -4.2 89 89 NNE 6 9 30.09 1019 10 16.0934 0 0
5:15 am 05:15 Clear 28 -2.2 25 -3.7 90 90 N 7 11 30.09 1019 10 16.0934 0 0
5:35 am 05:35 Clear 28 -2.3 26 -3.6 91 91 N 8 13 30.09 1019 10 16.0934 0 0
5:55 am 05:55 Clear 28 -2.1 25 -3.7 89 89 N 7 11 30.09 1019 10 16.0934 0 0
6:15 am 06:15 Clear 28 -2.5 25 -4 90 90 N 7 11 30.09 1019 10 16.0934 0 0
6:35 am 06:35 Clear 28 -2.1 25 -3.7 89 89 N 9 15 30.09 1019 10 16.0934 0 0
6:55 am 06:55 Clear 28 -2.5 25 -4 90 90 N 8 13 30.12 1020 10 16.0934 0 0
7:15 am 07:15 Sunny 27 -2.7 25 -4.1 90 90 N 7 11 30.09 1019 10 16.0934 0 0
7:35 am 07:35 Sunny 27 -2.6 25 -4 90 90 N 7 11 30.12 1020 10 16.0934 0 0
7:55 am 07:55 Sunny 28 -2.3 25 -3.7 90 90 N 5 7 30.09 1019 10 16.0934 0 0
8:15 am 08:15 Sunny 30 -1.3 26 -3.2 87 87 NNE 5 7 30.12 1020 10 16.0934 0 0
8:35 am 08:35 Sunny 31 -0.7 26 -3.1 84 84 NNE 8 13 30.12 1020 10 16.0934 0 0
8:55 am 08:55 Sunny 32 0 27 -2.7 82 82 NNE 8 13 30.09 1019 10 16.0934 0 0
9:15 am 09:15 Sunny 33 0.3 27 -2.6 81 81 NNE 6 9 30.09 1019 10 16.0934 0 0
9:35 am 09:35 Sunny 34 1 28 -2.4 78 78 NNE 10 17 30.09 1019 10 16.0934 0 0
9:55 am 09:55 Sunny 36 2.2 28 -2 74 74 NNE 9 15 30.09 1019 10 16.0934 0 0
10:15 am 10:15 Sunny 39 4 29 -1.6 67 67 NNE 7 11 30.06 1018 10 16.0934 0 0
10:35 am 10:35 Sunny 41 5.2 29 -1.5 62 62 NNE 9 15 30.06 1018 10 16.0934 0 0
10:55 am 10:55 Sunny 43 6.3 30 -1.3 59 59 NNE 10 17 30.03 1017 10 16.0934 0 0
11:15 am 11:15 Sunny 45 7.4 30 -1.3 54 54 NE 10 17 30.03 1017 10 16.0934 0 0
11:35 am 11:35 Sunny 47 8.6 30 -1.2 51 51 NE 10 17 30.03 1017 10 16.0934 0 0
11:55 am 11:55 Sunny 49 9.7 30 -1.1 47 47 NE 9 15 30 1016 10 16.0934 0 0
12:15 pm 12:15 Sunny 50 10.1 29 -1.8 44 44 NE 12 19 30 1016 10 16.0934 0 0
12:35 pm 12:35 Sunny 51 10.8 29 -1.5 43 43 ENE 10 17 30 1016 10 16.0934 0 0
12:55 pm 12:55 Sunny 53 11.6 30 -1 42 42 ENE 10 17 29.97 1015 10 16.0934 0 0
1:15 pm 13:15 Sunny 55 12.5 31 -0.7 40 40 ENE 9 15 29.94 1014 10 16.0934 0 0
1:35 pm 13:35 Sunny 55 13 31 -0.8 39 39 ENE 8 13 29.94 1014 10 16.0934 0 0
1:55 pm 13:55 Sunny 56 13.4 31 -0.7 38 38 NE 9 15 29.94 1014 10 16.0934 0 0
2:15 pm 14:15 Sunny 57 13.7 31 -0.8 37 37 NE 3 6 29.94 1014 10 16.0934 0 0
2:35 pm 14:35 Sunny 57 13.9 30 -1.1 36 36 E 5 7 29.94 1014 10 16.0934 0 0
2:55 pm 14:55 Sunny 58 14.4 31 -0.8 35 35 NE 7 11 29.94 1014 10 16.0934 0 0
3:15 pm 15:15 Sunny 59 14.9 30 -0.9 34 34 NE 5 7 29.94 1014 10 16.0934 0 0
3:35 pm 15:35 Sunny 58 14.5 30 -1.2 34 34 NNE 7 11 29.94 1014 10 16.0934 0 0
3:55 pm 15:55 Sunny 60 15.6 31 -0.5 34 34 N 8 13 29.94 1014 10 16.0934 0 0
4:15 pm 16:15 Sunny 59 15.1 31 -0.6 34 34 NE 8 13 29.94 1014 10 16.0934 0 0
4:30 pm 16:30 Sunny 60 15.3 31 -0.8 33 33 NNE 13 20 29.94 1014 10 16.0934 0 0
5:35 pm 17:35 undefined N/A N/A N/A NNE 9 15 N/A N/A 0 0
5:55 pm 17:55 Sunny 58 14.7 32 -0.2 36 36 NNE 9 15 29.91 1013 10 16.0934 0 0
6:15 pm 18:15 Sunny 57 14.1 32 -0.2 38 38 NNE 13 20 29.94 1014 10 16.0934 0 0
6:35 pm 18:35 Sunny 57 14.1 32 0 38 38 NNE 10 17 29.94 1014 10 16.0934 0 0
6:55 pm 18:55 Sunny 56 13.5 32 0 40 40 NE 10 17 29.94 1014 10 16.0934 0 0
7:15 pm 19:15 Sunny 55 12.7 32 0.1 42 42 NE 8 13 29.94 1014 10 16.0934 0 0
7:35 pm 19:35 Sunny 53 11.5 33 0.7 48 48 E 7 11 29.97 1015 10 16.0934 0 0
7:55 pm 19:55 Sunny 51 10.8 33 0.6 50 50 NE 12 19 29.97 1015 10 16.0934 0 0
8:15 pm 20:15 Clear 50 9.9 32 0.2 51 51 NE 18 30 29.97 1015 10 16.0934 0 0
8:35 pm 20:35 Partly Cloudy 48 8.8 32 0 54 54 NE 17 28 30 1016 10 16.0934 0 0
8:55 pm 20:55 Mostly Cloudy 47 8.2 32 0.1 57 57 NE 15 24 30 1016 10 16.0934 0 0
9:15 pm 21:15 Mostly Cloudy 46 8 32 0.1 58 58 NE 14 22 30.03 1017 10 16.0934 0 0
9:35 pm 21:35 Mostly Cloudy 46 7.5 32 0.1 60 60 NE 13 20 30.03 1017 10 16.0934 0 0
9:55 pm 21:55 Mostly Cloudy 45 7.2 32 0.2 61 61 ENE 13 20 30.03 1017 10 16.0934 0 0
10:15 pm 22:15 Cloudy 45 7 33 0.3 63 63 NE 10 17 30.06 1018 10 16.0934 0 0
10:35 pm 22:35 Cloudy 44 6.8 32 0.1 63 63 NE 14 22 30.06 1018 10 16.0934 0 0
10:55 pm 22:55 Mostly Cloudy 44 6.5 32 0 64 64 NE 10 17 30.03 1017 10 16.0934 0 0
11:15 pm 23:15 Cloudy 44 6.5 32 0 64 64 NE 12 19 30.06 1018 10 16.0934 0 0
11:35 pm 23:35 Cloudy 43 6.3 32 0 64 64 NE 14 22 30.06 1018 10 16.0934 0 0
11:55 pm 23:55 Cloudy 43 6.1 32 -0.1 65 65 NE 14 22 30.09 1019 10 16.0934 0 0

Powered by AerisWeather